FLOCK 4P-5 (44818 NORAD) Tracking and Keplerian Element Data

This shows tracking and keplerian element data for the satellite.

Feedback or suggestion? Click here.




ElementValue
Catalog44818
NameFLOCK 4P-5
Epoch Orbit1937
Epoch Day93.73419791
Epoch Year2020
RAAN155.2464
Inclination97.5042
Eccentricity0.0011984
Argument of Perigee149.8206
Mean Anonmoly210.3722
Mean Motion15.19921902
Decay Rate7.31E-06
L11 44818U 19081Q 20093.73419791 .00000731 00000-0 37207-4 0 9993
L22 44818 97.5042 155.2464 0011984 149.8206 210.3722 15.19921902 19370

Live tracking and technical data element details for FLOCK 4P-5 (NORAD 44818). FLOCK 4P-5 can be tracked NOW for your location showing map with azimuth and elevation plus other details from your city location.

Track the satellite on the map from your city or location and see movement details for azimuth, elevation, latitude, longitude, range, height, and movement on the map or in text.







IsCatalogInMostPopularTable: catalog: 44818, numindb: 47
Update: records affected: 1



GetName: 44818 FLOCK 4P-5

Hit Count: updated at: Fri, 10 Apr 2020 18:15:43 GMT